Location: Beetenbrück
(52.8113°N, 9.5946°E)
Time: 21:30:25
(UTC+00:00)

Meteor 2-8 Rocket - Pass Details

Date: 14 April 2026
Orbit: 936 x 958 km, 82.5° (Epoch: 12 May)

Event Time Altitude Azimuth Distance (km) Brightness Sun altitude
Exits shadow 20:51:22 22° 186° (S) 1,939 5.7 -19.8°
Maximum altitude 20:55:30 86° 99° (E) 950 4.3 -20.2°
Drops below altitude 10° 21:01:36 10° 12° (NNE) 2,663 7.3 -20.7°
Sets 21:04:05 0° 12° (NNE) 3,610 8.1 -21.0°
